Location: Unspecified
(0.0000°N, 0.0000°E)
Time: 14:36:11
(UTC+00:00)

STARLINK-35347 - Pass Details

Date: 19 February 2026
Orbit: 474 x 476 km, 53.2° (Epoch: 6 March)

Event Time Altitude Azimuth Distance (km) Brightness Sun altitude
Rises 19:53:28 0° 205° (SSW) 2,522 6.5 -24.4°
Reaches altitude 10° 19:55:41 10° 199° (SSW) 1,640 5.4 -25.0°
Enters shadow 19:57:00 20° 191° (S) 1,144 4.4 -25.3°
